Sigfox identifier Datetime Temperature Humidity SNR
0039E070 2019-03-18 13:19:22 20.8 27 23.2
0039E070 2019-03-18 12:46:00 20.8 27 23.4
0039E070 2019-03-18 12:12:37 20.8 27 23.4
0039E070 2019-03-18 11:39:14 20.7 27 23.4
0039E070 2019-03-18 11:05:51 20.7 27 24
0039E070 2019-03-18 10:32:28 20.7 27 24
0039E070 2019-03-18 09:59:05 20.7 27 24
0039E070 2019-03-18 09:25:42 20.7 27 23.8
0039E070 2019-03-18 08:52:19 20.7 27 24
0039E070 2019-03-18 08:18:56 20.7 27 24
0039E070 2019-03-18 07:45:34 20.6 27 23.9
0039E070 2019-03-18 07:12:11 20.6 27 24
0039E070 2019-03-18 06:38:49 20.6 27 24
0039E070 2019-03-18 06:05:27 20.6 27 23.3
0039E070 2019-03-18 05:32:06 20.6 27 23.3
0039E070 2019-03-18 04:58:43 20.6 27 23.2
0039E070 2019-03-18 04:25:21 20.7 27 23.1
0039E070 2019-03-18 03:51:25 20.6 27 23
0039E070 2019-03-18 03:18:03 20.7 27 23.1
0039E070 2019-03-18 02:44:40 20.6 27 23
0039E070 2019-03-18 02:11:17 20.6 26 22.9
0039E070 2019-03-18 01:37:54 20.6 26 23.1
0039E070 2019-03-18 01:04:31 20.6 26 23.1
0039E070 2019-03-18 00:31:07 20.6 26 22.9
0039E070 2019-03-17 23:57:44 20.6 26 23
0039E070 2019-03-17 23:24:21 20.7 26 22.9
0039E070 2019-03-17 22:50:58 20.6 26 22.9
0039E070 2019-03-17 22:17:35 20.6 26 22.8
0039E070 2019-03-17 21:44:14 20.6 26 22.1
0039E070 2019-03-17 21:10:52 20.6 26 22.3
0039E070 2019-03-17 20:37:30 20.6 26 22.4
0039E070 2019-03-17 20:04:10 20.6 26 22.6
0039E070 2019-03-17 19:30:48 20.6 26 22.4
0039E070 2019-03-17 18:57:26 20.6 26 22.3
0039E070 2019-03-17 18:24:03 20.7 26 22.4
0039E070 2019-03-17 17:50:41 20.7 26 22.4
0039E070 2019-03-17 17:17:19 20.7 26 22.3
0039E070 2019-03-17 16:43:57 20.7 26 22.2
0039E070 2019-03-17 16:10:35 20.7 27 22.4
0039E070 2019-03-17 15:37:14 20.7 26 22.5
0039E070 2019-03-17 15:03:52 20.7 27 22.5
0039E070 2019-03-17 14:30:31 20.7 27 22.6
0039E070 2019-03-17 13:57:09 20.7 27 22.7
0039E070 2019-03-17 13:23:46 20.7 27 22.6
0039E070 2019-03-17 12:50:24 20.7 27 22.7
0039E070 2019-03-17 12:17:02 20.7 27 22.7
0039E070 2019-03-17 11:43:40 20.7 27 22.6
0039E070 2019-03-17 11:10:17 20.7 27 22.3
0039E070 2019-03-17 10:36:55 20.7 27 22.4
0039E070 2019-03-17 10:03:33 20.7 27 22.2
0039E070 2019-03-17 09:30:12 20.7 27 22.4
0039E070 2019-03-17 08:56:50 20.7 27 22.3
0039E070 2019-03-17 08:23:29 20.7 27 22.2
0039E070 2019-03-17 07:50:07 20.7 27 22.1
0039E070 2019-03-17 07:16:45 20.7 27 21.9
0039E070 2019-03-17 06:43:23 20.7 27 21.8
0039E070 2019-03-17 06:10:01 20.7 27 21.7
0039E070 2019-03-17 05:36:39 20.7 27 21.7
0039E070 2019-03-17 05:03:17 20.7 27 21.9
0039E070 2019-03-17 04:29:55 20.7 27 21.8
0039E070 2019-03-17 03:56:32 20.7 27 21.7
0039E070 2019-03-17 03:23:10 20.7 27 21.9
0039E070 2019-03-17 02:49:47 20.7 27 22
0039E070 2019-03-17 02:16:25 20.7 27 21.8
0039E070 2019-03-17 01:43:02 20.7 27 21.6
0039E070 2019-03-17 01:09:40 20.7 27 21.6
0039E070 2019-03-17 00:36:17 20.7 27 21.5
0039E070 2019-03-17 00:02:22 20.7 27 21.9
0039E070 2019-03-16 23:29:00 20.6 27 21.8
0039E070 2019-03-16 22:55:39 20.7 26 22
0039E070 2019-03-16 22:22:17 20.7 26 22.1
0039E070 2019-03-16 21:48:54 20.7 26 22.2
0039E070 2019-03-16 21:15:32 20.7 26 22.3
0039E070 2019-03-16 20:42:10 20.7 26 22.3
0039E070 2019-03-16 20:08:48 20.7 26 22.2
0039E070 2019-03-16 19:35:25 20.7 26 22.2
0039E070 2019-03-16 19:02:02 20.7 26 22.3
0039E070 2019-03-16 18:28:40 20.7 26 22.3
0039E070 2019-03-16 17:55:18 20.7 26 22.4
0039E070 2019-03-16 17:21:56 20.7 26 22.4
0039E070 2019-03-16 16:48:34 20.7 26 22.3
0039E070 2019-03-16 16:15:13 20.7 26 22.4
0039E070 2019-03-16 15:41:52 20.7 26 22.4
0039E070 2019-03-16 15:08:31 20.7 26 22.4
0039E070 2019-03-16 14:35:09 20.7 26 22.5
0039E070 2019-03-16 14:01:47 20.7 26 22.2
0039E070 2019-03-16 13:28:25 20.7 26 22.1
0039E070 2019-03-16 12:55:04 20.7 26 22.1
0039E070 2019-03-16 12:21:42 20.7 26 22.3
0039E070 2019-03-16 11:48:21 20.7 26 22.3
0039E070 2019-03-16 11:14:59 20.7 26 22.5
0039E070 2019-03-16 10:41:37 20.7 26 22.4
0039E070 2019-03-16 10:08:14 20.7 26 22.2
0039E070 2019-03-16 09:34:52 20.7 26 22.4
0039E070 2019-03-16 09:01:29 20.7 26 22.3
0039E070 2019-03-16 08:28:08 20.7 26 22.3
0039E070 2019-03-16 07:54:46 20.7 26 22.4
0039E070 2019-03-16 07:21:24 20.7 26 22.5
0039E070 2019-03-16 06:48:02 20.7 26 22.4
0039E070 2019-03-16 06:14:40 20.7 26 22.5
0039E070 2019-03-16 05:41:18 20.7 26 22.5
0039E070 2019-03-16 05:07:56 20.7 26 22.6
0039E070 2019-03-16 04:34:32 20.7 26 22.7
0039E070 2019-03-16 04:01:09 20.7 26 22.6
0039E070 2019-03-16 03:27:47 20.7 26 23.4
0039E070 2019-03-16 02:54:23 20.7 26 23.4
0039E070 2019-03-16 02:21:00 20.7 26 23.2
0039E070 2019-03-16 01:47:38 20.7 26 23.1
0039E070 2019-03-16 01:14:15 20.7 26 23.3
0039E070 2019-03-16 00:40:54 20.7 26 23.2
0039E070 2019-03-16 00:07:33 20.8 26 23.3
0039E070 2019-03-15 23:34:11 20.8 26 23.3
0039E070 2019-03-15 23:00:49 20.8 26 23.3
0039E070 2019-03-15 22:27:28 20.8 26 23.3
0039E070 2019-03-15 21:54:05 20.9 26 23.3
0039E070 2019-03-15 21:20:42 20.8 26 23.2
0039E070 2019-03-15 20:47:20 20.8 26 23.1
0039E070 2019-03-15 20:13:24 20.8 26 23.1
0039E070 2019-03-15 19:40:01 20.9 26 23
0039E070 2019-03-15 19:06:38 20.9 26 22.8
0039E070 2019-03-15 18:33:15 20.9 26 22.7
0039E070 2019-03-15 17:59:52 20.9 26 22.5
0039E070 2019-03-15 17:26:31 20.9 26 22.6
0039E070 2019-03-15 16:53:08 20.9 26 22.4
0039E070 2019-03-15 16:19:47 20.9 26 22.4
0039E070 2019-03-15 15:46:24 20.9 26 22.2
0039E070 2019-03-15 15:13:02 20.9 26 22
0039E070 2019-03-15 14:39:39 20.9 26 22
0039E070 2019-03-15 14:06:16 20.9 26 20.8
0039E070 2019-03-15 13:32:54 20.9 26 20.8
0039E070 2019-03-15 12:59:31 20.8 26 20.7
0039E070 2019-03-15 12:26:07 20.9 26 20.7
0039E070 2019-03-15 11:52:45 20.8 26 20.5
0039E070 2019-03-15 11:19:23 20.8 26 20.4
0039E070 2019-03-15 10:46:00 20.8 25 20.1
0039E070 2019-03-15 10:12:37 20.8 25 20.2
0039E070 2019-03-15 09:39:14 20.7 25 20.2
0039E070 2019-03-15 09:05:51 20.7 25 20.1
0039E070 2019-03-15 08:32:29 20.7 25 20.1
0039E070 2019-03-15 07:59:06 20.7 24 19.9
0039E070 2019-03-15 07:25:44 20.7 24 20.2
0039E070 2019-03-15 06:52:21 20.7 24 20
0039E070 2019-03-15 06:18:58 20.7 24 19.8
0039E070 2019-03-15 05:45:36 20.7 24 19.7
0039E070 2019-03-15 05:12:12 20.7 24 19.6
0039E070 2019-03-15 04:38:48 20.7 24 19.7
0039E070 2019-03-15 04:05:26 20.7 24 19.9
0039E070 2019-03-15 03:32:05 20.7 24 20.1
0039E070 2019-03-15 02:58:43 20.7 24 21.4
0039E070 2019-03-15 02:25:21 20.7 24 21.3
0039E070 2019-03-15 01:51:58 20.7 24 21.4
0039E070 2019-03-15 01:18:37 20.7 24 21.5
0039E070 2019-03-15 00:45:14 20.8 24 21.6
0039E070 2019-03-15 00:11:54 20.8 24 21.8
0039E070 2019-03-14 23:38:29 20.8 24 21.9
0039E070 2019-03-14 23:05:05 20.8 24 21.9
0039E070 2019-03-14 22:31:43 20.8 24 22.1
0039E070 2019-03-14 21:58:22 20.9 24 22.2
0039E070 2019-03-14 21:25:00 20.9 24 22.2
0039E070 2019-03-14 20:51:39 20.9 24 22.3
0039E070 2019-03-14 20:18:16 20.9 24 22.4
0039E070 2019-03-14 19:44:55 20.9 24 22.6
0039E070 2019-03-14 19:11:32 20.9 23 22.6
0039E070 2019-03-14 18:38:09 21 23 22.8
0039E070 2019-03-14 18:04:48 21 23 23.6
0039E070 2019-03-14 17:31:26 21 23 23.5
0039E070 2019-03-14 16:58:03 21 23 23.6
0039E070 2019-03-14 16:24:09 21 23 23.9
0039E070 2019-03-14 15:50:47 21 23 24
0039E070 2019-03-14 15:17:24 21 23 24
0039E070 2019-03-14 14:44:01 21 23 24
0039E070 2019-03-14 14:10:38 21 23 23.9
0039E070 2019-03-14 13:37:15 21 23 23.3
0039E070 2019-03-14 13:03:52 20.9 23 23.4
0039E070 2019-03-14 12:30:30 20.9 23 23.3
0039E070 2019-03-14 11:57:07 20.9 22 23.3
0039E070 2019-03-14 11:23:43 20.9 22 23.3
0039E070 2019-03-14 10:50:20 20.8 22 23.3
0039E070 2019-03-14 10:16:58 20.8 22 23.2
0039E070 2019-03-14 09:43:35 20.7 21 23.3
0039E070 2019-03-14 09:10:11 20.7 21 23.3
0039E070 2019-03-14 08:36:49 20.7 20 23.4
0039E070 2019-03-14 07:30:03 20.7 19 23.4
0039E070 2019-03-14 05:16:33 20.7 18 23.4
0039E070 2019-03-14 04:43:11 20.7 18 22.8
0039E070 2019-03-14 04:09:48 20.7 18 22.7
0039E070 2019-03-14 03:36:25 20.7 18 23.4
0039E070 2019-03-14 03:03:03 20.7 18 23.1
0039E070 2019-03-14 02:29:40 20.7 18 23
0039E070 2019-03-14 01:56:17 20.7 18 23
0039E070 2019-03-14 01:22:54 20.7 17 23.7
0039E070 2019-03-14 00:49:32 20.7 17 23.6
0039E070 2019-03-14 00:16:09 20.7 17 23.7
0039E070 2019-03-13 23:42:45 20.7 17 23.8
0039E070 2019-03-13 23:09:22 20.7 17 24.3
0039E070 2019-03-13 22:35:58 20.7 17 24.5
0039E070 2019-03-13 22:02:36 20.7 17 24.6
0039E070 2019-03-13 21:29:13 20.8 17 24.7
0039E070 2019-03-13 20:55:51 20.8 17 24.7
0039E070 2019-03-13 20:22:29 20.8 17 24.9
0039E070 2019-03-13 19:49:06 20.8 17 24.8
0039E070 2019-03-13 19:15:43 20.8 16 24.8
0039E070 2019-03-13 18:42:20 20.9 16 24.8
0039E070 2019-03-13 18:08:58 21 16 24.8
0039E070 2019-03-13 17:35:35 21 16 25
0039E070 2019-03-13 17:02:12 21 16 25
0039E070 2019-03-13 16:28:50 21 16 25.1
0039E070 2019-03-13 15:55:28 20.9 16 24.9
0039E070 2019-03-13 15:22:05 21 16 25.4
0039E070 2019-03-13 14:48:42 20.9 16 25.4
0039E070 2019-03-13 14:15:19 20.9 16 25.5
0039E070 2019-03-13 13:41:56 20.8 16 25.2
0039E070 2019-03-13 13:08:34 20.9 16 25.3
0039E070 2019-03-13 12:34:38 20.9 16 25.2
0039E070 2019-03-13 12:01:16 20.9 16 24.9
0039E070 2019-03-13 11:27:54 20.8 17 25
0039E070 2019-03-13 10:54:32 20.7 16 24.9
0039E070 2019-03-13 10:21:09 20.7 16 24.9
0039E070 2019-03-13 09:47:48 20.5 16 24.4
0039E070 2019-03-13 09:14:25 20.4 15 24.5
0039E070 2019-03-13 08:41:04 20.4 15 24.6
0039E070 2019-03-13 08:07:42 20.4 15 24.6
0039E070 2019-03-13 07:34:20 20.4 15 24.7
0039E070 2019-03-13 07:00:57 20.5 15 24.6
0039E070 2019-03-13 06:27:35 20.5 16 24.7
0039E070 2019-03-13 05:54:12 20.5 16 24.6
0039E070 2019-03-13 05:20:49 20.5 16 24.5
0039E070 2019-03-13 04:47:25 20.5 16 24.4
0039E070 2019-03-13 04:14:01 20.5 16 24.4
0039E070 2019-03-13 03:40:37 20.5 16 24.4
0039E070 2019-03-13 03:07:15 20.5 16 24.9
0039E070 2019-03-13 02:33:51 20.5 16 24.8
0039E070 2019-03-13 02:00:27 20.5 16 24.3
0039E070 2019-03-13 01:27:04 20.6 16 24.2
0039E070 2019-03-13 00:53:41 20.6 16 24.1
0039E070 2019-03-13 00:20:18 20.6 16 23.9
0039E070 2019-03-12 23:46:55 20.6 16 23.8
0039E070 2019-03-12 23:13:32 20.6 16 24.4
0039E070 2019-03-12 22:40:09 20.6 16 24.4
0039E070 2019-03-12 22:06:47 20.7 16 24.2
0039E070 2019-03-12 21:33:25 20.7 16 24.8
0039E070 2019-03-12 21:00:03 20.7 16 25.3
0039E070 2019-03-12 20:26:41 20.7 16 25.6
0039E070 2019-03-12 19:53:19 20.7 16 25.9
0039E070 2019-03-12 19:19:56 20.7 16 26.2
0039E070 2019-03-12 18:46:34 20.7 16 26.4
0039E070 2019-03-12 18:13:11 20.8 16 26.7
0039E070 2019-03-12 17:39:48 20.8 16 26.9
0039E070 2019-03-12 17:06:26 20.8 16 27.2
0039E070 2019-03-12 16:33:04 20.8 16 27.4
0039E070 2019-03-12 15:59:42 20.8 16 27.7
0039E070 2019-03-12 15:26:19 20.8 16 28
0039E070 2019-03-12 14:52:59 20.7 16 28.2
0039E070 2019-03-12 14:19:37 20.7 16 28.2
0039E070 2019-03-12 13:46:14 20.7 16 28.4
0039E070 2019-03-12 13:12:52 20.7 16 28.4
0039E070 2019-03-12 12:39:29 20.7 16 28.6
0039E070 2019-03-12 12:06:07 20.6 16 28.8
0039E070 2019-03-12 11:32:45 20.6 16 29
0039E070 2019-03-12 10:59:23 20.6 16 29.2
0039E070 2019-03-12 10:26:01 20.5 16 29.4
0039E070 2019-03-12 09:52:39 20.5 16 29.6
0039E070 2019-03-12 09:19:18 20.4 16 29.6
0039E070 2019-03-12 08:45:23 20.4 16 29.9
0039E070 2019-03-12 08:12:01 20.4 16 29.9
0039E070 2019-03-12 07:38:39 20.4 16 29.9
0039E070 2019-03-12 07:05:17 20.5 16 29.9
0039E070 2019-03-12 06:31:56 20.5 16 29.9
0039E070 2019-03-12 05:58:34 20.5 16 29.9
0039E070 2019-03-12 05:25:12 20.5 16 29.8
0039E070 2019-03-12 04:51:50 20.5 16 29.6
0039E070 2019-03-12 04:18:28 20.5 16 29.4
0039E070 2019-03-12 03:45:07 20.5 16 29.3
0039E070 2019-03-12 03:11:44 20.5 16 29.1
0039E070 2019-03-12 02:38:22 20.5 16 28.9
0039E070 2019-03-12 02:05:01 20.5 16 28.8
0039E070 2019-03-12 01:31:39 20.5 16 28.6
0039E070 2019-03-12 00:58:17 20.6 16 28.5
0039E070 2019-03-12 00:24:55 20.6 16 28.3
0039E070 2019-03-11 23:51:33 20.6 17 28.1
0039E070 2019-03-11 23:18:10 20.6 16 27.9
0039E070 2019-03-11 22:44:49 20.7 17 27.6
0039E070 2019-03-11 22:11:26 20.7 16 27.4
0039E070 2019-03-11 21:38:03 20.7 16 27.1
0039E070 2019-03-11 21:04:42 20.7 16 26.7
0039E070 2019-03-11 20:31:19 20.7 16 26.4
0039E070 2019-03-11 19:57:56 20.8 16 26
0039E070 2019-03-11 19:24:34 20.8 16 25.7
0039E070 2019-03-11 18:51:13 20.8 16 25.3
0039E070 2019-03-11 18:17:50 20.8 16 24.8
0039E070 2019-03-11 17:44:28 20.8 16 24.4
0039E070 2019-03-11 17:11:06 20.8 17 23.8
0039E070 2019-03-11 16:37:43 20.8 17 23.2
0039E070 2019-03-11 16:04:21 20.8 17 22.6
0039E070 2019-03-11 15:30:58 20.7 17 22.6
0039E070 2019-03-11 14:57:35 20.7 17 22.8
0039E070 2019-03-11 14:24:13 20.7 17 22.7
0039E070 2019-03-11 13:50:51 20.6 17 22.8
0039E070 2019-03-11 13:17:30 20.6 17 22.7
0039E070 2019-03-11 12:44:07 20.6 17 22.8
0039E070 2019-03-11 12:10:45 20.5 17 22.7
0039E070 2019-03-11 11:37:25 20.5 17 22.6
0039E070 2019-03-11 11:04:01 20.5 17 22.6
0039E070 2019-03-11 10:30:39 20.5 17 22.5
0039E070 2019-03-11 09:57:17 20.5 18 22.5
0039E070 2019-03-11 09:23:55 20.4 18 22.5
0039E070 2019-03-11 08:50:33 20.4 18 22.6
0039E070 2019-03-11 08:17:09 20.4 18 22.7
0039E070 2019-03-11 07:43:47 20.4 18 22.8
0039E070 2019-03-11 07:10:24 20.5 18 22.9
0039E070 2019-03-11 06:37:02 20.4 18 23.1
0039E070 2019-03-11 06:03:40 20.5 18 23.2
0039E070 2019-03-11 05:30:18 20.5 19 23.3
0039E070 2019-03-11 04:56:23 20.5 19 23.2
0039E070 2019-03-11 04:23:02 20.5 19 23.3
0039E070 2019-03-11 03:49:40 20.5 19 23.4
0039E070 2019-03-11 03:16:18 20.5 19 23.1
0039E070 2019-03-11 02:42:58 20.5 19 23.1
0039E070 2019-03-11 02:09:35 20.5 19 23.2
0039E070 2019-03-11 01:36:13 20.5 19 23.2
0039E070 2019-03-11 01:02:50 20.5 19 23.2
0039E070 2019-03-11 00:29:29 20.5 20 23.2
0039E070 2019-03-10 23:56:07 20.5 20 23.3
0039E070 2019-03-10 23:22:45 20.6 20 23.2
0039E070 2019-03-10 22:49:23 20.6 20 23.2
0039E070 2019-03-10 22:16:00 20.6 20 23.4
0039E070 2019-03-10 21:42:38 20.6 20 23.4
0039E070 2019-03-10 21:09:14 20.6 20 23.4
0039E070 2019-03-10 20:35:51 20.7 20 23.4
0039E070 2019-03-10 20:02:28 20.7 20 23.6
0039E070 2019-03-10 19:29:05 20.7 20 23.7
0039E070 2019-03-10 18:55:42 20.7 21 23.7
0039E070 2019-03-10 18:22:20 20.7 21 23.7
0039E070 2019-03-10 17:48:57 20.8 21 23.7
0039E070 2019-03-10 17:15:34 20.8 21 23.7
0039E070 2019-03-10 16:42:12 20.7 21 23.7
0039E070 2019-03-10 16:08:48 20.7 21 23.6
0039E070 2019-03-10 15:35:26 20.7 22 23.5
0039E070 2019-03-10 15:02:03 20.7 22 23.5
0039E070 2019-03-10 14:28:40 20.7 23 23.5
0039E070 2019-03-10 13:55:17 20.7 24 23.5
0039E070 2019-03-10 13:21:54 20.6 24 23.7
0039E070 2019-03-10 12:48:31 20.6 24 23.6
0039E070 2019-03-10 12:15:08 20.6 24 23.5
0039E070 2019-03-10 11:41:45 20.6 24 23.5
0039E070 2019-03-10 11:08:23 20.6 24 23.4
0039E070 2019-03-10 10:34:59 20.6 24 23.2
0039E070 2019-03-10 10:01:38 20.6 24 23.2
0039E070 2019-03-10 09:28:16 20.6 24 23.3
0039E070 2019-03-10 08:54:53 20.6 24 23.3
0039E070 2019-03-10 08:21:31 20.6 24 23.3
0039E070 2019-03-10 07:48:08 20.6 24 23.3
0039E070 2019-03-10 07:14:45 20.6 24 23.4
0039E070 2019-03-10 06:41:21 20.6 24 24
0039E070 2019-03-10 05:34:35 20.6 24 24
0039E070 2019-03-10 05:01:11 20.6 24 23.8
0039E070 2019-03-10 04:27:48 20.6 24 23.8
0039E070 2019-03-10 03:54:25 20.6 24 23.7
0039E070 2019-03-10 03:21:01 20.6 24 23.6
0039E070 2019-03-10 02:47:39 20.7 24 23.6
0039E070 2019-03-10 02:14:15 20.7 24 23.5
0039E070 2019-03-10 01:40:53 20.7 24 23.4
0039E070 2019-03-10 01:06:52 20.7 24 23.5
0039E070 2019-03-10 00:33:30 20.7 24 23.4
0039E070 2019-03-10 00:00:07 20.7 24 23.4
0039E070 2019-03-09 23:26:47 20.7 24 23.4
0039E070 2019-03-09 22:53:23 20.7 24 23.5
0039E070 2019-03-09 22:20:01 20.7 24 23.6
0039E070 2019-03-09 21:46:39 20.7 23 23.6
0039E070 2019-03-09 21:13:17 20.7 23 23.7
0039E070 2019-03-09 20:39:55 20.7 23 23.9
0039E070 2019-03-09 20:06:32 20.7 23 23.9
0039E070 2019-03-09 19:33:10 20.8 23 23.9
0039E070 2019-03-09 18:59:47 20.8 23 23.9
0039E070 2019-03-09 18:26:27 20.8 23 24
0039E070 2019-03-09 17:53:03 20.8 23 24.1
0039E070 2019-03-09 17:19:42 20.9 23 24
0039E070 2019-03-09 16:46:22 20.8 23 23.3
0039E070 2019-03-09 16:12:59 20.8 23 23.2
0039E070 2019-03-09 15:39:36 20.8 24 23.2
0039E070 2019-03-09 15:06:13 20.8 24 23.2
0039E070 2019-03-09 14:32:50 20.8 24 23.4
0039E070 2019-03-09 13:59:27 20.7 24 23.5
0039E070 2019-03-09 13:26:05 20.7 24 23.5
0039E070 2019-03-09 12:52:43 20.7 24 23.6
0039E070 2019-03-09 12:19:21 20.7 24 23.6
0039E070 2019-03-09 11:45:59 20.7 24 23.6
0039E070 2019-03-09 11:12:37 20.7 24 23.7
0039E070 2019-03-09 10:39:16 20.7 24 23.8
0039E070 2019-03-09 10:05:54 20.7 24 23.9
0039E070 2019-03-09 09:32:31 20.7 25 23.9
0039E070 2019-03-09 08:59:09 20.6 25 23.8
0039E070 2019-03-09 08:25:46 20.7 25 23.8
0039E070 2019-03-09 07:52:24 20.7 25 23.6
0039E070 2019-03-09 07:19:02 20.7 25 23.7
0039E070 2019-03-09 06:45:40 20.7 26 24.1
0039E070 2019-03-09 06:12:18 20.7 26 24
0039E070 2019-03-09 05:38:57 20.7 26 23.9
0039E070 2019-03-09 05:05:33 20.7 26 23.9
0039E070 2019-03-09 04:32:11 20.8 26 23.8
0039E070 2019-03-09 03:58:48 20.8 26 23.6
0039E070 2019-03-09 03:25:23 20.8 26 23.5
0039E070 2019-03-09 02:52:00 20.8 26 23.4
0039E070 2019-03-09 02:18:38 20.8 26 23.5
0039E070 2019-03-09 01:45:15 20.8 27 24.2
0039E070 2019-03-09 01:11:52 20.8 27 24.1
0039E070 2019-03-09 00:38:28 20.9 27 24
0039E070 2019-03-09 00:05:06 20.9 27 24
0039E070 2019-03-08 23:31:44 20.9 27 24
0039E070 2019-03-08 22:58:20 20.9 27 23.9
0039E070 2019-03-08 22:24:57 21 27 23.8
0039E070 2019-03-08 21:51:34 21 27 23.8
0039E070 2019-03-08 21:17:38 21 27 23.7
0039E070 2019-03-08 20:44:15 21 27 23.3
0039E070 2019-03-08 20:10:52 21 27 23.5
0039E070 2019-03-08 19:37:30 21.1 27 23.5
0039E070 2019-03-08 19:04:07 21.1 27 23.5
0039E070 2019-03-08 18:30:45 21.1 27 23.5
0039E070 2019-03-08 17:57:22 21.1 27 23.5
0039E070 2019-03-08 17:23:58 21.2 27 22.9
0039E070 2019-03-08 16:50:35 21.2 27 23
0039E070 2019-03-08 16:17:14 21.2 27 23
0039E070 2019-03-08 15:43:50 21.1 27 23
0039E070 2019-03-08 15:10:28 21.1 26 23
0039E070 2019-03-08 14:37:06 21.1 26 23.2
0039E070 2019-03-08 14:03:43 21 26 23.4
0039E070 2019-03-08 13:30:20 21 26 23.5
0039E070 2019-03-08 12:56:56 21 26 23.4
0039E070 2019-03-08 12:23:33 20.9 26 22.6
0039E070 2019-03-08 11:50:10 20.9 25 22.6
0039E070 2019-03-08 11:16:46 20.9 25 22.6
0039E070 2019-03-08 10:43:23 20.8 25 22.5
0039E070 2019-03-08 10:10:00 20.8 25 22.6
0039E070 2019-03-08 09:36:36 20.8 24 22.9
0039E070 2019-03-08 09:03:14 20.8 24 23
0039E070 2019-03-08 08:29:51 20.8 24 22.9
0039E070 2019-03-08 07:56:28 20.8 24 23.1
0039E070 2019-03-08 07:23:04 20.8 23 23
0039E070 2019-03-08 06:49:40 20.8 23 23.1
0039E070 2019-03-08 06:16:17 20.8 23 23
0039E070 2019-03-08 05:42:54 20.8 23 22.8
0039E070 2019-03-08 05:09:31 20.8 23 23.4
0039E070 2019-03-08 04:36:09 20.8 23 23.6
0039E070 2019-03-08 04:02:45 20.8 23 23.5
0039E070 2019-03-08 03:29:23 20.8 23 24
0039E070 2019-03-08 02:56:00 20.8 23 24.1
0039E070 2019-03-08 02:22:37 20.8 23 24
0039E070 2019-03-08 01:49:14 20.8 22 23.9
0039E070 2019-03-08 01:15:51 20.8 22 23.8
0039E070 2019-03-08 00:42:28 20.8 22 23.7
0039E070 2019-03-08 00:09:05 20.8 22 23.6
0039E070 2019-03-07 23:35:41 20.8 22 23.6
0039E070 2019-03-07 23:02:18 20.9 22 23.5
0039E070 2019-03-07 22:28:56 20.9 22 23.4
0039E070 2019-03-07 21:55:32 20.9 22 24.1
0039E070 2019-03-07 21:22:10 21 22 24.1
0039E070 2019-03-07 20:48:47 21 22 24.1
0039E070 2019-03-07 20:15:24 21 22 23.9
0039E070 2019-03-07 19:42:01 21 22 23.6
0039E070 2019-03-07 19:08:39 21.1 22 23.4
0039E070 2019-03-07 18:35:18 21.2 22 23.4
0039E070 2019-03-07 18:01:53 21.4 21 23.3
0039E070 2019-03-07 18:00:35 21.2 22 23.3
0039E070 2019-03-07 17:27:14 21.3 22 23.2
0039E070 2019-03-07 16:53:50 21.3 22 23.2
0039E070 2019-03-07 16:20:26 21.2 21 23.2
0039E070 2019-03-07 15:47:04 21.2 21 22.3
0039E070 2019-03-07 15:13:41 21.2 21 22
0039E070 2019-03-07 14:40:18 21.2 21 22
0039E070 2019-03-07 14:06:55 21.1 20 20.9
0039E070 2019-03-07 13:33:33 21 19 20.5
0039E070 2019-03-07 13:00:11 21 19 20.4
0039E070 2019-03-07 12:26:48 21 19 20.5
0039E070 2019-03-07 11:53:26 21 18 20.5
0039E070 2019-03-07 11:20:03 20.9 18 20.2
0039E070 2019-03-07 10:46:41 20.9 17 20.1
0039E070 2019-03-07 10:13:19 20.8 17 19.7
0039E070 2019-03-07 09:39:56 20.8 16 19.9
0039E070 2019-03-07 09:06:33 20.8 16 20
0039E070 2019-03-07 08:33:11 20.8 16 17.9
0039E070 2019-03-07 07:59:49 20.8 15 17.6
0039E070 2019-03-07 07:26:28 20.8 15 17.9
0039E070 2019-03-07 06:53:05 20.8 15 17.9
0039E070 2019-03-07 06:19:43 20.8 14 18.1
0039E070 2019-03-07 05:46:22 20.8 14 18.1
0039E070 2019-03-07 05:13:00 20.8 14 17.9
0039E070 2019-03-07 04:39:39 20.8 14 17.9
0039E070 2019-03-07 04:06:18 20.8 14 17.9
0039E070 2019-03-07 03:32:58 20.8 14 17.8
0039E070 2019-03-07 02:59:35 20.8 13 19.9
0039E070 2019-03-07 02:26:13 20.8 13 20
0039E070 2019-03-07 01:52:51 20.8 13 20
0039E070 2019-03-07 01:19:29 20.8 13 20.1
0039E070 2019-03-07 00:46:07 20.8 13 20
0039E070 2019-03-07 00:12:46 20.8 13 19.9
0039E070 2019-03-06 23:39:23 20.8 13 21.4
0039E070 2019-03-06 23:06:00 20.8 12 21.3
0039E070 2019-03-06 22:32:39 20.8 12 21.4
0039E070 2019-03-06 21:59:16 20.8 12 21.5
0039E070 2019-03-06 21:25:53 20.8 12 21.6
0039E070 2019-03-06 20:52:31 20.9 12 21.8
0039E070 2019-03-06 20:19:08 20.9 12 21.9
0039E070 2019-03-06 19:45:46 20.9 12 22.1
0039E070 2019-03-06 19:12:23 20.9 12 22
0039E070 2019-03-06 18:39:00 20.9 12 22.1
0039E070 2019-03-06 18:05:37 20.9 12 22.1
0039E070 2019-03-06 17:32:14 21 12 21.9
0039E070 2019-03-06 16:58:51 21 12 22
0039E070 2019-03-06 16:25:28 21 12 22.1
0039E070 2019-03-06 15:52:04 21 11 22.3
0039E070 2019-03-06 15:18:41 21 12 22.3
0039E070 2019-03-06 14:45:18 20.9 12 22.1
0039E070 2019-03-06 14:11:25 20.8 12 22.2
0039E070 2019-03-06 13:38:04 20.7 11 22.2
0039E070 2019-03-06 13:04:42 20.7 11 21.1
0039E070 2019-03-06 12:31:20 20.7 12 21.4
0039E070 2019-03-06 11:57:58 20.7 12 21.6
0039E070 2019-03-06 11:24:36 20.7 12 21.7
0039E070 2019-03-06 10:51:14 20.7 12 22.7
0039E070 2019-03-06 10:17:53 20.6 12 21.8
0039E070 2019-03-06 09:44:32 20.5 12 21.9
0039E070 2019-03-06 09:11:12 20.5 12 22.1
0039E070 2019-03-06 08:37:48 20.5 12 21.9
0039E070 2019-03-06 08:04:26 20.6 12 21.9
0039E070 2019-03-06 07:31:02 20.6 13 21.7
0039E070 2019-03-06 06:57:41 20.6 13 21.5
0039E070 2019-03-06 06:24:19 20.6 13 21.3
0039E070 2019-03-06 05:50:56 20.6 13 21.2
0039E070 2019-03-06 05:17:34 20.6 13 21.2
0039E070 2019-03-06 04:44:11 20.7 13 21
0039E070 2019-03-06 04:10:49 20.7 13 21
0039E070 2019-03-06 03:37:26 20.7 13 20.7
0039E070 2019-03-06 03:04:04 20.7 13 20.9
0039E070 2019-03-06 02:30:44 20.7 13 20.9
0039E070 2019-03-06 01:57:22 20.7 13 20.9
0039E070 2019-03-06 01:24:01 20.7 13 20.8
0039E070 2019-03-06 00:50:39 20.8 13 21.1
0039E070 2019-03-06 00:17:16 20.8 13 20.9
0039E070 2019-03-05 23:43:55 20.8 13 20.9
0039E070 2019-03-05 23:10:33 20.8 14 20.6
0039E070 2019-03-05 22:37:11 20.9 14 20.3
0039E070 2019-03-05 22:03:49 20.9 14 20.2
0039E070 2019-03-05 21:30:27 20.9 14 18.6
0039E070 2019-03-05 20:57:05 20.9 14 18.8
0039E070 2019-03-05 20:23:43 21 14 19
0039E070 2019-03-05 19:50:21 20.9 14 18.5
0039E070 2019-03-05 19:16:58 21 14 18.5
0039E070 2019-03-05 18:43:37 21 14 18.7
0039E070 2019-03-05 18:10:13 21 14 18.7
0039E070 2019-03-05 17:36:50 21.1 15 19.1
0039E070 2019-03-05 17:03:27 21.1 15 19.3
0039E070 2019-03-05 16:30:08 21 16 19.3
0039E070 2019-03-05 15:56:41 21 16 19.6
0039E070 2019-03-05 15:23:19 20.8 16 19.9
0039E070 2019-03-05 14:49:56 20.7 17 20.1
0039E070 2019-03-05 14:16:34 20.7 17 20.4
0039E070 2019-03-05 13:43:11 20.7 17 20.5
0039E070 2019-03-05 13:09:49 20.7 17 20.2
0039E070 2019-03-05 12:36:27 20.7 17 20.4
0039E070 2019-03-05 12:03:05 20.6 17 20.6
0039E070 2019-03-05 11:29:43 20.6 18 21.9
0039E070 2019-03-05 10:56:21 20.6 18 21.8
0039E070 2019-03-05 10:22:26 20.6 18 21.9
0039E070 2019-03-05 09:49:05 20.6 18 22.2
0039E070 2019-03-05 09:15:46 20.6 18 22.2
0039E070 2019-03-05 08:42:20 20.6 18 22.1
0039E070 2019-03-05 08:08:59 20.6 19 21.9
0039E070 2019-03-05 07:35:37 20.6 19 22
0039E070 2019-03-05 07:02:15 20.6 19 21.9
0039E070 2019-03-05 06:28:53 20.6 19 22
0039E070 2019-03-05 05:55:32 20.6 19 22.1
0039E070 2019-03-05 05:22:09 20.6 19 22
0039E070 2019-03-05 04:48:47 20.6 19 21.8
0039E070 2019-03-05 04:15:25 20.6 19 21.7
0039E070 2019-03-05 03:42:03 20.6 19 21.8
0039E070 2019-03-05 03:08:41 20.6 19 21.6
0039E070 2019-03-05 02:35:19 20.6 19 21.4
0039E070 2019-03-05 02:01:59 20.6 19 21.2
0039E070 2019-03-05 01:28:35 20.6 19 21.1
0039E070 2019-03-05 00:55:13 20.7 18 21.1
0039E070 2019-03-05 00:21:50 20.6 18 20.9
0039E070 2019-03-04 23:48:28 20.6 18 20.8
0039E070 2019-03-04 23:15:05 20.6 18 20.5
0039E070 2019-03-04 22:41:42 20.6 18 18.7
0039E070 2019-03-04 22:08:19 20.7 18 18.5
0039E070 2019-03-04 21:34:56 20.7 18 18.3
0039E070 2019-03-04 21:01:33 20.7 18 18.1
0039E070 2019-03-04 20:28:09 20.7 18 17.5
0039E070 2019-03-04 19:54:46 20.7 18 17.4
0039E070 2019-03-04 19:21:24 20.7 18 17.3
0039E070 2019-03-04 18:48:01 20.7 18 16.9
0039E070 2019-03-04 18:14:41 20.7 18 19.5
0039E070 2019-03-04 17:41:16 20.7 18 19.2
0039E070 2019-03-04 17:07:53 20.7 18 19.3
0039E070 2019-03-04 16:34:31 20.6 18 19.2
0039E070 2019-03-04 16:01:10 20.6 18 18.8
0039E070 2019-03-04 15:27:45 20.5 17 18.9
0039E070 2019-03-04 14:54:24 20.5 17 18.9
0039E070 2019-03-04 14:21:01 20.5 17 18.9
0039E070 2019-03-04 13:47:43 20.5 17 18.9
0039E070 2019-03-04 13:14:17 20.4 17 18.8
0039E070 2019-03-04 12:40:54 20.4 17 18.7
0039E070 2019-03-04 12:07:32 20.4 17 18.7
0039E070 2019-03-04 11:34:08 20.3 17 18.4
0039E070 2019-03-04 11:00:47 20.3 17 18.2
0039E070 2019-03-04 10:27:24 20.3 17 18.3
0039E070 2019-03-04 09:54:00 20.2 17 18.3
0039E070 2019-03-04 09:20:38 20.2 17 18.3
0039E070 2019-03-04 08:47:17 20.1 17 18.5
0039E070 2019-03-04 08:13:55 20.1 18 18.4
0039E070 2019-03-04 07:40:32 20.1 18 18.4
0039E070 2019-03-04 07:07:10 20.1 18 18.4
0039E070 2019-03-04 06:33:16 20.2 18 18.4
0039E070 2019-03-04 05:59:54 20.2 18 18.4
0039E070 2019-03-04 05:26:36 20.2 18 18.4
0039E070 2019-03-04 04:53:11 20.2 18 14.7
0039E070 2019-03-04 04:19:51 20.2 18 14.5
0039E070 2019-03-04 03:46:27 20.2 18 14.3
0039E070 2019-03-04 03:13:05 20.2 18 14.2
0039E070 2019-03-04 02:39:43 20.2 18 14.1
0039E070 2019-03-04 02:06:22 20.2 18 14
0039E070 2019-03-04 01:33:00 20.2 17 14.2
0039E070 2019-03-04 00:59:39 20.2 17 14
0039E070 2019-03-04 00:26:16 20.2 17 13.8
0039E070 2019-03-03 23:52:56 20.2 17 14
0039E070 2019-03-03 23:19:32 20.2 17 14.2
0039E070 2019-03-03 22:46:11 20.2 17 14.3
0039E070 2019-03-03 22:12:49 20.2 17 14.6
0039E070 2019-03-03 21:39:27 20.2 18 14.8
0039E070 2019-03-03 21:06:06 20.2 18 14.5
0039E070 2019-03-03 20:32:45 20.2 18 14.5
0039E070 2019-03-03 19:59:23 20.3 18 14.6
0039E070 2019-03-03 19:25:59 20.3 18 14.3
0039E070 2019-03-03 18:52:36 20.3 18 14.3
0039E070 2019-03-03 18:19:14 20.3 18 14.3
0039E070 2019-03-03 17:45:51 20.3 18 14.5
0039E070 2019-03-03 17:12:28 20.3 18 14.4
0039E070 2019-03-03 16:39:06 20.3 18 14.6
0039E070 2019-03-03 16:05:43 20.3 18 14.6
0039E070 2019-03-03 15:32:20 20.3 18 14.6
0039E070 2019-03-03 14:58:58 20.3 18 14.7
0039E070 2019-03-03 14:25:35 20.3 18 14.7
0039E070 2019-03-03 13:52:12 20.3 18 14.8
0039E070 2019-03-03 13:18:52 20.3 18 14.8
0039E070 2019-03-03 12:45:27 20.3 18 14.7
0039E070 2019-03-03 12:12:06 20.3 18 14.5
0039E070 2019-03-03 11:38:42 20.3 18 14.1
0039E070 2019-03-03 11:05:21 20.3 18 14.1
0039E070 2019-03-03 10:32:02 20.3 18 14.1
0039E070 2019-03-03 09:58:37 20.3 18 14
0039E070 2019-03-03 09:25:16 20.3 18 13.8
0039E070 2019-03-03 08:51:52 20.3 18 14.1
0039E070 2019-03-03 08:18:29 20.4 18 13.9
0039E070 2019-03-03 07:45:07 20.4 18 13.6
0039E070 2019-03-03 06:38:19 20.4 18 13.6
0039E070 2019-03-03 06:04:56 20.4 18 13.5
0039E070 2019-03-03 05:31:33 20.4 18 13.3
0039E070 2019-03-03 04:58:11 20.4 18 13.1
0039E070 2019-03-03 04:24:46 20.4 18 13.1
0039E070 2019-03-03 03:51:24 20.4 18 13.7
0039E070 2019-03-03 03:18:01 20.4 18 13.4
0039E070 2019-03-03 02:44:01 20.5 18 14.5
0039E070 2019-03-03 02:10:38 20.5 18 14.2
0039E070 2019-03-03 01:37:17 20.5 18 14
0039E070 2019-03-03 01:03:56 20.5 18 14
0039E070 2019-03-03 00:30:31 20.5 18 14.3
0039E070 2019-03-02 23:57:05 20.5 18 14.3
0039E070 2019-03-02 23:23:41 20.5 18 14
0039E070 2019-03-02 22:16:57 20.5 17 14.3
0039E070 2019-03-02 21:43:32 20.5 17 14.4
0039E070 2019-03-02 21:10:09 20.5 17 14.6
0039E070 2019-03-02 19:30:01 20.6 17 14.8
0039E070 2019-03-02 18:56:38 20.6 17 14.8
0039E070 2019-03-02 18:23:14 20.6 17 15.4
0039E070 2019-03-02 17:49:53 20.6 17 15.4
0039E070 2019-03-02 17:16:28 20.6 17 15.5
0039E070 2019-03-02 16:09:47 20.6 17 15.4
0039E070 2019-03-02 15:36:22 20.6 17 15.3
0039E070 2019-03-02 15:03:01 20.5 17 15.4
0039E070 2019-03-02 14:29:35 20.5 16 15.5
0039E070 2019-03-02 12:49:29 20.5 16 15.5
0039E070 2019-03-02 12:16:04 20.5 16 15.5
0039E070 2019-03-02 11:42:42 20.5 16 15.5
0039E070 2019-03-02 11:09:20 20.5 16 15.7
0039E070 2019-03-02 10:35:58 20.5 16 15.6
0039E070 2019-03-02 10:02:39 20.5 16 15.8
0039E070 2019-03-02 09:29:15 20.5 15 15
0039E070 2019-03-02 08:55:50 20.5 15 15.4
0039E070 2019-03-02 08:22:30 20.5 15 15.5
0039E070 2019-03-02 07:49:06 20.5 15 16.2
0039E070 2019-03-02 07:15:43 20.5 15 16.1
0039E070 2019-03-02 06:42:21 20.5 15 16.6
0039E070 2019-03-02 06:09:00 20.6 15 16.9
0039E070 2019-03-02 05:35:38 20.6 15 16.7
0039E070 2019-03-02 05:02:13 20.6 15 16.8
0039E070 2019-03-02 04:28:53 20.6 15 16.8
0039E070 2019-03-02 03:55:27 20.6 15 16.7
0039E070 2019-03-02 03:22:04 20.7 14 16.8
0039E070 2019-03-02 02:48:43 20.7 14 16.6
0039E070 2019-03-02 02:15:20 20.7 14 17.2
0039E070 2019-03-02 01:41:59 20.8 14 17.4
0039E070 2019-03-02 01:08:37 20.8 14 17.8
0039E070 2019-03-02 00:35:15 20.8 14 18.1
0039E070 2019-03-02 00:01:52 20.9 14 18.1
0039E070 2019-03-01 23:28:32 21 14 18.1
0039E070 2019-03-01 22:54:37 21 14 18.3
0039E070 2019-03-01 22:21:12 21 14 20.3
0039E070 2019-03-01 21:47:49 21.1 14 20.5
0039E070 2019-03-01 21:14:27 21.1 14 20.6
0039E070 2019-03-01 20:41:04 21.1 14 20.6
0039E070 2019-03-01 20:07:41 21.1 13 20.5
0039E070 2019-03-01 19:34:19 21.1 13 20.5
0039E070 2019-03-01 19:00:57 21.1 13 20.5
0039E070 2019-03-01 18:27:34 21.2 14 20.2
0039E070 2019-03-01 17:54:12 21.3 14 20.2
0039E070 2019-03-01 17:20:49 21.4 14 20.1
0039E070 2019-03-01 16:47:26 21.4 15 20.4
0039E070 2019-03-01 16:14:05 21.3 15 20.4
0039E070 2019-03-01 15:40:42 21.2 15 20.7
0039E070 2019-03-01 15:07:20 21.1 15 21
0039E070 2019-03-01 14:33:58 21 16 21.2
0039E070 2019-03-01 14:00:36 21 16 21.2
0039E070 2019-03-01 13:27:14 20.9 16 22.3
0039E070 2019-03-01 12:53:53 21 16 22.1
0039E070 2019-03-01 12:20:31 21 17 22.2
0039E070 2019-03-01 11:47:10 20.9 17 22
0039E070 2019-03-01 11:13:48 20.9 17 21.9
0039E070 2019-03-01 10:40:25 20.8 17 21.8
0039E070 2019-03-01 10:07:02 20.7 17 22
0039E070 2019-03-01 09:33:39 20.7 18 22
0039E070 2019-03-01 09:00:15 20.6 18 22.2
0039E070 2019-03-01 08:26:52 20.6 18 21.1
0039E070 2019-03-01 07:53:31 20.7 19 21
0039E070 2019-03-01 07:20:07 20.7 19 21
0039E070 2019-03-01 06:46:47 20.7 19 21.3
0039E070 2019-03-01 06:13:23 20.7 19 21.5
0039E070 2019-03-01 05:39:59 20.7 19 21.7
0039E070 2019-03-01 05:06:37 20.7 20 21.7
0039E070 2019-03-01 04:33:14 20.7 20 21.7
0039E070 2019-03-01 03:59:51 20.7 20 21.6
0039E070 2019-03-01 03:26:31 20.8 20 21.5
0039E070 2019-03-01 02:53:06 20.8 21 21.8
0039E070 2019-03-01 02:19:43 20.8 21 21.5
0039E070 2019-03-01 01:46:20 20.8 21 21.4
0039E070 2019-03-01 01:12:57 20.8 21 21.2
0039E070 2019-03-01 00:39:34 20.8 22 21.3
0039E070 2019-03-01 00:06:12 20.9 22 19.7
0039E070 2019-02-28 23:32:48 20.9 22 19.7
0039E070 2019-02-28 22:59:26 20.9 23 21.1
0039E070 2019-02-28 22:26:05 20.9 23 21.4
0039E070 2019-02-28 21:52:42 21 23 21.4
0039E070 2019-02-28 21:19:20 21 23 21.4
0039E070 2019-02-28 20:45:57 21 23 21.2
0039E070 2019-02-28 20:12:34 21.1 24 21.1
0039E070 2019-02-28 19:39:13 21.3 24 21
0039E070 2019-02-28 19:37:54 21.1 24 21
0039E070 2019-02-28 19:04:33 21.2 24 20.9
0039E070 2019-02-28 18:31:08 21.2 24 20.8
0039E070 2019-02-28 17:57:44 21.4 25 20.4
0039E070 2019-02-28 17:24:22 21.4 25 20.4
0039E070 2019-02-28 16:50:59 21.5 26 20.1
0039E070 2019-02-28 16:17:37 21.4 26 20.1
0039E070 2019-02-28 15:44:15 21.4 26 20.2
0039E070 2019-02-28 15:10:52 21.3 25 20.2
0039E070 2019-02-28 14:37:30 21.3 25 20.5
0039E070 2019-02-28 13:30:43 21.3 24 20.3
0039E070 2019-02-28 12:57:23 21.3 25 19.9
0039E070 2019-02-28 12:23:58 21.2 24 19.9
0039E070 2019-02-28 11:50:37 21.2 24 19.8
0039E070 2019-02-28 11:17:12 21.1 24 19.8
0039E070 2019-02-28 10:43:50 21 24 19.7
0039E070 2019-02-28 09:37:05 20.9 23 20.1
0039E070 2019-02-28 09:03:46 20.8 22 18
0039E070 2019-02-28 08:30:22 20.8 22 17.6
0039E070 2019-02-28 07:57:01 20.8 22 18
0039E070 2019-02-28 07:23:39 20.8 22 18.1
0039E070 2019-02-28 06:50:16 20.8 22 18.5
0039E070 2019-02-28 06:16:54 20.9 22 18.7
0039E070 2019-02-28 05:43:33 20.9 22 18.6
0039E070 2019-02-28 05:10:11 20.9 22 18.4
0039E070 2019-02-28 04:36:48 20.9 22 18.8
0039E070 2019-02-28 04:03:26 20.9 22 18.7
0039E070 2019-02-28 03:30:05 20.9 22 18.7
0039E070 2019-02-28 02:56:42 20.9 22 19.2
0039E070 2019-02-28 02:23:22 20.9 22 19.2
0039E070 2019-02-28 01:49:57 21 22 19
0039E070 2019-02-28 01:16:34 21 22 19
0039E070 2019-02-28 00:43:12 21 22 19
0039E070 2019-02-28 00:09:50 21 23 18.6
0039E070 2019-02-27 23:36:28 21 23 18.6
0039E070 2019-02-27 23:03:06 21.1 23 18.8
0039E070 2019-02-27 22:29:45 21.1 23 19
0039E070 2019-02-27 21:56:23 21.2 23 19.2
0039E070 2019-02-27 21:23:03 21.2 23 19.4
0039E070 2019-02-27 20:49:39 21.3 23 19.8
0039E070 2019-02-27 20:16:18 21.3 23 19.6
0039E070 2019-02-27 19:42:55 21.4 24 19.6
0039E070 2019-02-27 19:09:33 21.4 24 19.9
0039E070 2019-02-27 18:36:13 21.5 24 20.1
0039E070 2019-02-27 18:02:48 21.7 24 20
0039E070 2019-02-27 17:29:26 21.7 25 20.1
0039E070 2019-02-27 16:56:03 21.7 26 20
0039E070 2019-02-27 16:22:40 21.7 26 20.2
0039E070 2019-02-27 15:48:45 21.6 26 20.2
0039E070 2019-02-27 15:15:25 21.6 26 20.1
0039E070 2019-02-27 14:42:00 21.5 26 20.2
0039E070 2019-02-27 14:08:38 21.4 25 20.6
0039E070 2019-02-27 13:35:16 21.3 25 20.3
0039E070 2019-02-27 13:01:53 21.3 25 20.6
0039E070 2019-02-27 12:28:31 21.3 25 20.7
0039E070 2019-02-27 11:55:09 21.2 25 20.8
0039E070 2019-02-27 11:21:47 21.2 25 20.9
0039E070 2019-02-27 10:48:25 21.2 25 21.3
0039E070 2019-02-27 10:15:04 21.1 25 21.3
0039E070 2019-02-27 09:41:40 21 24 21.4
0039E070 2019-02-27 09:08:18 21 24 21.7
0039E070 2019-02-27 08:34:56 21 24 21.7
0039E070 2019-02-27 08:01:35 21 24 21.8
0039E070 2019-02-27 07:28:12 21 23 21.8
0039E070 2019-02-27 06:54:49 21 23 21.7
0039E070 2019-02-27 06:21:26 21 23 21.9
0039E070 2019-02-27 05:48:04 21 23 21.9
0039E070 2019-02-27 05:14:42 21.1 23 22
0039E070 2019-02-27 04:41:19 21.1 23 22.8
0039E070 2019-02-27 04:07:57 21.1 23 22.9
0039E070 2019-02-27 03:34:33 21.1 23 22.9
0039E070 2019-02-27 03:01:11 21.1 23 22.7
0039E070 2019-02-27 02:27:49 21.2 23 22.9
0039E070 2019-02-27 01:54:27 21.2 23 23
0039E070 2019-02-27 01:21:05 21.2 24 22.9
0039E070 2019-02-27 00:47:44 21.3 24 22.8
0039E070 2019-02-27 00:14:20 21.3 24 22.6
0039E070 2019-02-26 23:40:57 21.3 24 22.5
0039E070 2019-02-26 23:07:34 21.4 24 22.5
0039E070 2019-02-26 22:34:11 21.4 24 22.6
0039E070 2019-02-26 22:00:48 21.5 24 23.4
0039E070 2019-02-26 21:27:25 21.5 24 24.1
0039E070 2019-02-26 20:54:02 21.6 24 24.5
0039E070 2019-02-26 20:20:40 21.7 24 25.1
0039E070 2019-02-26 19:47:17 21.7 24 25.5
0039E070 2019-02-26 19:13:54 21.8 24 25.8
0039E070 2019-02-26 18:40:32 21.9 24 26.2
0039E070 2019-02-26 18:07:11 21.9 24 26.5
0039E070 2019-02-26 17:33:46 22 24 26.8
0039E070 2019-02-26 17:00:27 22 25 27.1
0039E070 2019-02-26 16:27:03 21.9 25 27.4
0039E070 2019-02-26 15:53:40 21.8 25 27.6
0039E070 2019-02-26 15:20:18 21.7 25 27.9
0039E070 2019-02-26 14:46:58 21.6 25 27.9
0039E070 2019-02-26 14:13:33 21.6 25 28.1
0039E070 2019-02-26 13:40:12 21.6 25 28.3
0039E070 2019-02-26 13:06:50 21.5 25 28.6
0039E070 2019-02-26 12:33:27 21.7 24 28.8
0039E070 2019-02-26 12:32:10 21.5 25 28.9
0039E070 2019-02-26 11:58:47 21.4 25 29.2
0039E070 2019-02-26 11:25:24 21.3 24 29.4
0039E070 2019-02-26 10:52:01 21.3 24 29.5
0039E070 2019-02-26 10:18:39 21.1 24 29.6
0039E070 2019-02-26 09:45:17 21.1 24 29.7
0039E070 2019-02-26 09:11:56 21 23 29.8
0039E070 2019-02-26 08:38:33 20.9 23 29.8
0039E070 2019-02-26 08:05:13 21 23 29.8
0039E070 2019-02-26 07:31:51 21 23 29.8
0039E070 2019-02-26 06:58:29 21 23 29.8
0039E070 2019-02-26 06:25:06 21 22 29.8
0039E070 2019-02-26 05:51:43 21 22 29.7
0039E070 2019-02-26 05:18:21 21 22 29.7
0039E070 2019-02-26 04:44:59 21 22 29.6
0039E070 2019-02-26 04:11:37 21 22 29.4
0039E070 2019-02-26 03:38:14 21 22 29.3
0039E070 2019-02-26 03:04:51 21 22 29.1
0039E070 2019-02-26 02:31:29 21.1 22 28.9
0039E070 2019-02-26 01:58:07 21.1 22 28.6
0039E070 2019-02-26 01:24:44 21.1 22 28.4
0039E070 2019-02-26 00:51:21 21.2 21 28.2
0039E070 2019-02-26 00:17:59 21.2 21 28
0039E070 2019-02-25 23:44:37 21.2 21 27.8
0039E070 2019-02-25 23:11:14 21.3 21 27.5
0039E070 2019-02-25 22:37:53 21.3 21 27.2
0039E070 2019-02-25 22:04:31 21.4 21 26.9
0039E070 2019-02-25 21:31:08 21.4 21 26.5
0039E070 2019-02-25 20:57:46 21.5 21 26.2
0039E070 2019-02-25 20:24:23 21.5 21 26.2
0039E070 2019-02-25 19:51:01 21.6 21 25.8
0039E070 2019-02-25 19:17:38 21.6 21 25.4
0039E070 2019-02-25 18:44:16 21.7 21 24.9
0039E070 2019-02-25 18:10:52 21.7 21 24.4
0039E070 2019-02-25 17:37:29 21.8 22 23.8
0039E070 2019-02-25 17:04:06 21.7 22 23.1
0039E070 2019-02-25 16:30:43 21.7 22 22.2
0039E070 2019-02-25 15:57:19 21.8 22 22.2
0039E070 2019-02-25 15:23:56 21.7 23 21.3
0039E070 2019-02-25 14:50:32 21.6 23 20.9
0039E070 2019-02-25 14:17:09 21.4 22 20.7
0039E070 2019-02-25 13:43:46 21.4 22 20.7
0039E070 2019-02-25 13:10:28 21.3 22 20.9
0039E070 2019-02-25 12:37:02 21.2 22 21
0039E070 2019-02-25 12:03:42 21.2 22 21.1
0039E070 2019-02-25 11:30:17 21.1 23 20.9
0039E070 2019-02-25 10:56:55 21 23 20.9
0039E070 2019-02-25 10:23:32 20.9 22 20.9
0039E070 2019-02-25 09:50:09 20.8 22 21
0039E070 2019-02-25 09:16:47 21 22 21.1
0039E070 2019-02-25 09:15:29 20.7 22 21.5
0039E070 2019-02-25 08:42:07 20.7 22 21.5
0039E070 2019-02-25 08:08:46 20.7 22 21.7
0039E070 2019-02-25 07:35:24 20.7 22 21.7
0039E070 2019-02-25 07:02:02 20.7 22 21.8
0039E070 2019-02-25 06:28:40 20.7 22 21.8
0039E070 2019-02-25 05:55:18 20.7 22 21.8
0039E070 2019-02-25 05:21:56 20.7 22 21.8
0039E070 2019-02-25 04:48:33 20.7 22 21.8
0039E070 2019-02-25 04:15:09 20.8 22 21.8
0039E070 2019-02-25 03:41:47 20.8 22 21.8
0039E070 2019-02-25 03:08:25 20.8 22 21.8
0039E070 2019-02-25 02:34:59 20.8 22 21.9
0039E070 2019-02-25 02:01:40 20.8 22 22.1
0039E070 2019-02-25 01:28:13 20.8 22 22.3
0039E070 2019-02-25 00:54:50 20.8 22 22.4
0039E070 2019-02-25 00:21:27 20.8 22 22.3
0039E070 2019-02-24 23:48:04 20.8 23 22.1
0039E070 2019-02-24 23:14:42 20.8 23 22.1
0039E070 2019-02-24 22:41:20 20.8 23 22.1
0039E070 2019-02-24 22:07:57 20.9 23 22.3
0039E070 2019-02-24 21:34:31 20.9 23 22.3
0039E070 2019-02-24 21:01:09 20.9 23 22.5
0039E070 2019-02-24 20:27:46 20.9 22 22.4
0039E070 2019-02-24 19:54:23 20.9 22 22.5
0039E070 2019-02-24 19:21:01 20.9 22 22.2
0039E070 2019-02-24 18:47:40 20.9 22 22.1
0039E070 2019-02-24 18:14:15 20.9 22 22.1
0039E070 2019-02-24 17:40:55 20.9 22 22.1
0039E070 2019-02-24 17:07:30 20.9 22 22.2
0039E070 2019-02-24 16:34:06 20.9 22 21.9
0039E070 2019-02-24 16:00:45 20.9 22 22.1
0039E070 2019-02-24 15:27:23 20.9 22 22
0039E070 2019-02-24 14:54:00 20.9 21 22.1
0039E070 2019-02-24 14:20:38 20.9 21 22.3
0039E070 2019-02-24 13:47:17 20.9 21 22.4
0039E070 2019-02-24 13:13:55 20.9 21 22.4
0039E070 2019-02-24 12:40:33 20.9 21 22.4
0039E070 2019-02-24 12:07:14 20.9 21 22.3
0039E070 2019-02-24 11:33:52 20.9 21 22.1
0039E070 2019-02-24 11:00:27 20.9 21 22.1
0039E070 2019-02-24 10:27:03 20.9 21 22.1
0039E070 2019-02-24 09:53:40 20.9 21 22.2
0039E070 2019-02-24 09:20:18 20.9 21 22.4
0039E070 2019-02-24 08:46:55 20.9 21 22.6
0039E070 2019-02-24 08:13:32 20.9 21 22.7
0039E070 2019-02-24 07:40:09 20.9 20 22.6
0039E070 2019-02-24 07:06:46 20.9 20 22.4
0039E070 2019-02-24 06:33:23 20.9 20 22.6
0039E070 2019-02-24 06:00:01 21 20 22.5
0039E070 2019-02-24 05:26:06 21 20 22.6
0039E070 2019-02-24 04:52:43 21 20 22.6
0039E070 2019-02-24 04:19:22 21 20 22.5
0039E070 2019-02-24 03:45:56 21 20 22.4
0039E070 2019-02-24 03:12:32 21 20 22.6
0039E070 2019-02-24 02:39:09 21 20 22.6
0039E070 2019-02-24 02:05:46 21 20 22.7
0039E070 2019-02-24 01:32:23 21.1 20 22.5
0039E070 2019-02-24 00:59:00 21.1 19 22.4
0039E070 2019-02-24 00:25:38 21.1 19 22.3
0039E070 2019-02-23 23:52:16 21.1 19 22.2
0039E070 2019-02-23 23:18:54 21.1 19 22.4
0039E070 2019-02-23 22:45:31 21.2 19 22.2
0039E070 2019-02-23 22:12:10 21.2 19 22.4
0039E070 2019-02-23 21:38:47 21.2 19 22.3
0039E070 2019-02-23 21:05:25 21.2 18 22.3
0039E070 2019-02-23 20:32:02 21.3 18 23.1
0039E070 2019-02-23 19:58:39 21.3 18 23.2
0039E070 2019-02-23 19:25:17 21.3 18 23
0039E070 2019-02-23 18:51:53 21.3 18 23
0039E070 2019-02-23 18:18:31 21.3 17 23
0039E070 2019-02-23 17:45:08 21.3 17 22.9
0039E070 2019-02-23 17:11:45 21.3 16 22.9
0039E070 2019-02-23 16:38:23 21.3 16 23
0039E070 2019-02-23 16:05:00 21.2 16 22.9
0039E070 2019-02-23 15:31:37 21.1 16 22.9
0039E070 2019-02-23 14:58:16 21 16 22.6
0039E070 2019-02-23 14:24:52 21 16 22.7
0039E070 2019-02-23 13:51:29 21 15 22.7
0039E070 2019-02-23 13:18:07 21 15 22.5
0039E070 2019-02-23 12:44:45 21 15 22.5
0039E070 2019-02-23 12:11:22 20.9 15 22.3
0039E070 2019-02-23 11:38:00 21 15 22.4
0039E070 2019-02-23 11:04:38 20.9 15 22.5
0039E070 2019-02-23 10:31:15 20.9 15 22.3
0039E070 2019-02-23 09:57:53 21 15 22.3
0039E070 2019-02-23 09:24:31 20.9 14 22.3
0039E070 2019-02-23 08:51:09 21 14 22.3
0039E070 2019-02-23 08:17:47 20.9 14 22.2
0039E070 2019-02-23 07:44:25 20.9 14 22.2
0039E070 2019-02-23 07:11:03 20.9 14 22.3
0039E070 2019-02-23 06:37:42 20.9 14 21.1
0039E070 2019-02-23 06:04:18 20.9 13 20.9
0039E070 2019-02-23 05:30:55 20.9 13 21.3
0039E070 2019-02-23 04:57:32 20.9 13 21.2
0039E070 2019-02-23 04:24:10 20.9 13 21.2
0039E070 2019-02-23 03:50:48 20.9 13 21.1
0039E070 2019-02-23 03:17:25 20.9 13 20.8
0039E070 2019-02-23 02:44:01 21 13 20.7
0039E070 2019-02-23 02:10:39 21 13 20.7
0039E070 2019-02-23 01:36:44 21 12 20.7
0039E070 2019-02-23 01:03:22 21 12 20.9
0039E070 2019-02-23 00:29:59 21 12 20.8
0039E070 2019-02-22 23:56:36 21 12 21.1
0039E070 2019-02-22 23:23:13 21 12 21.1
0039E070 2019-02-22 22:49:50 21.1 12 21.1
0039E070 2019-02-22 22:16:27 21.1 12 21.2
0039E070 2019-02-22 21:43:04 21.1 12 21
0039E070 2019-02-22 21:09:39 21.2 12 21.1
0039E070 2019-02-22 20:36:16 21.2 12 20.9
0039E070 2019-02-22 20:02:53 21.2 12 20.5
0039E070 2019-02-22 19:29:29 21.2 12 20.5
0039E070 2019-02-22 18:56:06 21.2 12 20.3
0039E070 2019-02-22 18:22:42 21.3 12 20.1
0039E070 2019-02-22 17:49:19 21.3 12 19.8
0039E070 2019-02-22 17:15:57 21.3 13 19.8
0039E070 2019-02-22 16:42:32 21.3 13 19.6
0039E070 2019-02-22 16:09:08 21.2 13 19.2
0039E070 2019-02-22 15:35:45 21.1 13 18.8
0039E070 2019-02-22 15:02:22 21 13 18.7
0039E070 2019-02-22 14:29:01 20.9 13 18.8
0039E070 2019-02-22 13:55:38 20.9 13 18.8
0039E070 2019-02-22 13:22:14 20.9 13 18.4
0039E070 2019-02-22 12:48:51 20.8 13 18.6
0039E070 2019-02-22 12:15:30 20.8 13 18.8
0039E070 2019-02-22 11:42:07 20.7 13 18.9
0039E070 2019-02-22 11:08:41 20.7 13 18.3
0039E070 2019-02-22 10:35:18 20.6 13 18.6
0039E070 2019-02-22 10:01:57 20.6 13 18
0039E070 2019-02-22 09:28:32 20.5 13 17.9
0039E070 2019-02-22 08:55:08 20.6 13 18.1
0039E070 2019-02-22 08:21:45 20.6 13 17.8
0039E070 2019-02-22 07:48:21 20.6 13 17.4
0039E070 2019-02-22 07:14:58 20.6 13 17.4
0039E070 2019-02-22 06:41:35 20.6 13 17.5
0039E070 2019-02-22 06:08:12 20.6 13 17.5
0039E070 2019-02-22 05:34:52 20.6 13 17.6
0039E070 2019-02-22 05:01:26 20.7 13 17.6
0039E070 2019-02-22 04:28:04 20.7 13 17.5
0039E070 2019-02-22 03:54:43 20.7 13 17.5
0039E070 2019-02-22 03:21:17 20.7 13 19.8
0039E070 2019-02-22 02:47:54 20.7 13 21.1
0039E070 2019-02-22 02:14:35 20.7 13 23.2
0039E070 2019-02-22 01:41:10 20.7 13 23.8
0039E070 2019-02-22 01:07:45 20.8 13 24.4
0039E070 2019-02-22 00:34:21 20.8 13 24.5
0039E070 2019-02-22 00:00:57 20.8 13 24.6
0039E070 2019-02-21 23:27:35 20.9 13 24.6
0039E070 2019-02-21 22:54:10 20.9 13 24.5
0039E070 2019-02-21 22:20:46 21.1 13 24.5
0039E070 2019-02-21 22:19:29 20.9 13 24.5
0039E070 2019-02-21 21:46:05 20.9 13 24.5
0039E070 2019-02-21 21:12:43 21 13 24.5
0039E070 2019-02-21 20:39:21 21 13 24.5
0039E070 2019-02-21 20:05:58 21.1 13 24.4
0039E070 2019-02-21 19:32:36 21.1 13 24.4
0039E070 2019-02-21 18:59:13 21.2 13 24.5
0039E070 2019-02-21 18:25:50 21.3 14 24.5
0039E070 2019-02-21 17:52:27 21.3 14 24.5
0039E070 2019-02-21 17:19:04 21.3 14 24.5
0039E070 2019-02-21 16:45:41 21.2 14 24.5
0039E070 2019-02-21 16:12:18 21 14 24.5
0039E070 2019-02-21 15:38:57 20.9 14 24.5
0039E070 2019-02-21 14:32:11 20.8 14 24.5
0039E070 2019-02-21 13:58:44 20.8 14 23.8
0039E070 2019-02-21 13:25:21 20.7 15 23
0039E070 2019-02-21 12:51:58 20.7 15 22.1
0039E070 2019-02-21 12:18:37 20.7 15 21
0039E070 2019-02-21 11:45:12 20.7 16 19.4
0039E070 2019-02-21 11:11:47 20.7 16 16.9
0039E070 2019-02-21 10:38:24 20.7 16 16.7
0039E070 2019-02-21 10:05:02 20.7 17 16.1
0039E070 2019-02-21 09:31:39 20.7 17 16.4
0039E070 2019-02-21 08:58:17 20.7 17 16.4
0039E070 2019-02-21 08:24:54 20.7 18 15.8
0039E070 2019-02-21 07:51:30 20.7 18 16.2
0039E070 2019-02-21 07:18:07 20.7 18 16.2
0039E070 2019-02-21 06:44:45 20.7 18 16.2
0039E070 2019-02-21 06:11:22 20.7 18 15.9
0039E070 2019-02-21 05:37:59 20.8 18 16
0039E070 2019-02-21 05:04:37 20.8 19 15.9
0039E070 2019-02-21 04:31:13 20.8 19 16.1
0039E070 2019-02-21 03:57:49 20.8 19 15.9
0039E070 2019-02-21 03:24:26 20.8 19 15.9
0039E070 2019-02-21 02:51:03 20.8 19 15.7
0039E070 2019-02-21 02:17:39 20.8 19 18.9
0039E070 2019-02-21 01:44:15 20.8 19 18.9
0039E070 2019-02-21 01:10:51 20.8 20 20.6
0039E070 2019-02-21 00:37:26 20.8 20 20.8
0039E070 2019-02-21 00:04:01 20.8 20 20.8
0039E070 2019-02-20 23:30:38 20.9 20 20.7
0039E070 2019-02-20 22:57:15 20.9 20 20.7
0039E070 2019-02-20 22:23:51 20.9 20 20.6
0039E070 2019-02-20 21:50:25 20.9 20 20.8
0039E070 2019-02-20 21:17:01 20.9 21 20.6
0039E070 2019-02-20 20:43:37 20.9 21 20.8
0039E070 2019-02-20 20:10:12 20.9 21 20.9
0039E070 2019-02-20 19:36:53 21 21 21.1
0039E070 2019-02-20 19:03:29 21.2 21 21.2
0039E070 2019-02-20 19:02:08 21 21 21.2
0039E070 2019-02-20 18:28:45 21.1 21 21.2
0039E070 2019-02-20 17:55:18 21.1 21 21.1
0039E070 2019-02-20 17:21:54 21 22 21.1
0039E070 2019-02-20 16:48:29 21 23 21.1
0039E070 2019-02-20 16:15:06 20.9 23 21.2
0039E070 2019-02-20 15:41:40 20.9 23 21.2
0039E070 2019-02-20 15:08:16 20.9 23 21.1
0039E070 2019-02-20 14:34:50 21 24 21.1